Location: Agadir-Ikarkaouin
(31.1503°N, 9.0246°W)
Time: 04:11:40
(UTC+00:00)

Cosmos 2151 Rocket - Pass Details

Date: 18 September 2020
Orbit: 618 x 642 km, 82.5° (Epoch: 23 October)

Event Time Altitude Azimuth Distance (km) Brightness Sun altitude
Rises 20:16:58 0° 187° (S) 2,888 6.9 -21.8°
Reaches altitude 10° 20:19:10 10° 188° (S) 1,989 6.1 -22.3°
Maximum altitude 20:23:35 81° 275° (W) 639 3.6 -23.2°
Drops below altitude 10° 20:28:03 10° 4° (N) 2,016 6.3 -24.1°
Sets 20:30:19 0° 5° (N) 2,931 7.2 -24.6°
